| time (UTC) | temp F | wind direction | speed MPH | gust MPH | rain 1hr in | rain 24hr in | rain mn in | humidity % | barometer mb |
| 20260505041508 | 62 | 360 | 2.0 | 6.0 | 0.00 | 0.00 | 0.00 | 65 | 1015.7 |
| 20260505041004 | 62 | 360 | 2.0 | 8.0 | 0.00 | 0.00 | 0.00 | 65 | 1015.8 |
| 20260505040508 | 62 | 360 | 3.0 | 9.0 | 0.00 | 0.00 | 0.00 | 65 | 1015.8 |
| 20260505040012 | 63 | 360 | 1.0 | 9.0 | 0.00 | 0.00 | 0.00 | 65 | 1015.9 |
| 20260505035507 | 63 | 360 | 3.0 | 8.0 | 0.00 | 0.00 | 0.00 | 64 | 1015.9 |
| 20260505035006 | 63 | 360 | 3.0 | 8.0 | 0.00 | 0.00 | 0.00 | 64 | 1015.8 |
| 20260505034507 | 63 | 360 | 2.0 | 6.0 | 0.00 | 0.00 | 0.00 | 64 | 1015.9 |
| 20260505034012 | 63 | 360 | 2.0 | 9.0 | 0.00 | 0.00 | 0.00 | 64 | 1015.8 |
| 20260505033508 | 63 | 360 | 3.0 | 9.0 | 0.00 | 0.00 | 0.00 | 64 | 1015.8 |
| 20260505032503 | 64 | 360 | 4.0 | 11.0 | 0.00 | 0.00 | 0.00 | 63 | 1015.7 |
| 20260505032004 | 64 | 360 | 4.0 | 11.0 | 0.00 | 0.00 | 0.00 | 63 | 1015.8 |
| 20260505031003 | 64 | 360 | 3.0 | 9.0 | 0.00 | 0.00 | 0.00 | 62 | 1015.8 |
| 20260505030506 | 64 | 360 | 3.0 | 8.0 | 0.00 | 0.00 | 0.00 | 62 | 1015.8 |
| 20260505030010 | 65 | 360 | 3.0 | 11.0 | 0.00 | 0.00 | 0.00 | 62 | 1015.9 |
| 20260505025508 | 65 | 360 | 3.0 | 11.0 | 0.00 | 0.00 | 0.00 | 62 | 1015.8 |
| 20260505025008 | 65 | 360 | 3.0 | 10.0 | 0.00 | 0.00 | 0.00 | 61 | 1015.8 |
| 20260505024524 | 65 | 360 | 3.0 | 10.0 | 0.00 | 0.00 | 0.00 | 61 | 1015.8 |
| 20260505023504 | 66 | 360 | 4.0 | 10.0 | 0.00 | 0.00 | 0.00 | 61 | 1015.6 |
| 20260505023009 | 66 | 360 | 3.0 | 14.0 | 0.00 | 0.00 | 0.00 | 60 | 1015.6 |
| 20260505022512 | 66 | 360 | 5.0 | 14.0 | 0.00 | 0.00 | 0.00 | 60 | 1015.6 |
| 20260505022006 | 66 | 360 | 5.0 | 12.0 | 0.00 | 0.00 | 0.00 | 60 | 1015.5 |
| 20260505021530 | 66 | 360 | 4.0 | 12.0 | 0.00 | 0.00 | 0.00 | 60 | 1015.6 |
| 20260505021004 | 66 | 360 | 5.0 | 12.0 | 0.00 | 0.00 | 0.00 | 60 | 1015.6 |
| 20260505020503 | 67 | 360 | 5.0 | 11.0 | 0.00 | 0.00 | 0.00 | 60 | 1015.6 |
| 20260505020014 | 67 | 360 | 5.0 | 12.0 | 0.00 | 0.00 | 0.00 | 59 | 1015.5 |
| 20260505015506 | 67 | 360 | 5.0 | 12.0 | 0.00 | 0.00 | 0.00 | 59 | 1015.5 |
| 20260505015010 | 67 | 360 | 3.0 | 11.0 | 0.00 | 0.00 | 0.00 | 59 | 1015.5 |
| 20260505014519 | 67 | 360 | 3.0 | 9.0 | 0.00 | 0.00 | 0.00 | 58 | 1015.4 |
| 20260505014009 | 68 | 360 | 2.0 | 13.0 | 0.00 | 0.00 | 0.00 | 57 | 1015.4 |
| 20260505013512 | 68 | 360 | 3.0 | 13.0 | 0.00 | 0.00 | 0.00 | 56 | 1015.3 |
| 20260505012509 | 68 | 360 | 3.0 | 12.0 | 0.00 | 0.00 | 0.00 | 53 | 1015.1 |
| 20260505012007 | 68 | 360 | 4.0 | 16.0 | 0.00 | 0.00 | 0.00 | 51 | 1015.0 |
| 20260505011526 | 68 | 360 | 6.0 | 16.0 | 0.00 | 0.00 | 0.00 | 50 | 1014.9 |
| 20260505011006 | 68 | 360 | 5.0 | 9.0 | 0.00 | 0.00 | 0.00 | 48 | 1014.7 |
| 20260505010506 | 68 | 360 | 3.0 | 6.0 | 0.00 | 0.00 | 0.00 | 47 | 1014.7 |
| 20260505010009 | 68 | 360 | 2.0 | 3.0 | 0.00 | 0.00 | 0.00 | 46 | 1014.5 |
| 20260505005504 | 69 | 360 | 1.0 | 3.0 | 0.00 | 0.00 | 0.00 | 46 | 1014.5 |
| 20260505005007 | 69 | 360 | 1.0 | 3.0 | 0.00 | 0.00 | 0.00 | 46 | 1014.4 |
| 20260505004521 | 69 | 360 | 1.0 | 3.0 | 0.00 | 0.00 | 0.00 | 45 | 1014.3 |
| 20260505004009 | 70 | 360 | 1.0 | 4.0 | 0.00 | 0.00 | 0.00 | 45 | 1014.3 |
| 20260505003511 | 70 | 360 | 1.0 | 5.0 | 0.00 | 0.00 | 0.00 | 44 | 1014.3 |
| 20260505002513 | 70 | 360 | 1.0 | 4.0 | 0.00 | 0.00 | 0.00 | 44 | 1014.2 |
| 20260505002008 | 71 | 360 | 2.0 | 4.0 | 0.00 | 0.00 | 0.00 | 43 | 1014.1 |
| 20260505001524 | 71 | 360 | 1.0 | 4.0 | 0.00 | 0.00 | 0.00 | 43 | 1014.1 |
| 20260505001012 | 71 | 360 | 1.0 | 4.0 | 0.00 | 0.00 | 0.00 | 42 | 1014.1 |
| 20260505000506 | 72 | 360 | 2.0 | 3.0 | 0.00 | 0.00 | 0.00 | 43 | 1014.1 |
| 20260505000032 | 72 | 360 | 1.0 | 4.0 | 0.00 | 0.00 | 0.00 | 41 | 1014.1 |
| 20260504235510 | 73 | 360 | 1.0 | 5.0 | 0.00 | 0.00 | 0.00 | 41 | 1014.0 |
| 20260504235004 | 73 | 360 | 2.0 | 5.0 | 0.00 | 0.00 | 0.00 | 40 | 1014.0 |
| 20260504234515 | 73 | 360 | 1.0 | 4.0 | 0.00 | 0.00 | 0.00 | 39 | 1014.0 |
| 20260504234004 | 74 | 360 | 1.0 | 5.0 | 0.00 | 0.00 | 0.00 | 39 | 1013.8 |
| 20260504233506 | 74 | 360 | 1.0 | 5.0 | 0.00 | 0.00 | 0.00 | 40 | 1013.7 |
| 20260504233024 | 74 | 360 | 2.0 | 5.0 | 0.00 | 0.00 | 0.00 | 38 | 1013.7 |
| 20260504232507 | 74 | 360 | 2.0 | 6.0 | 0.00 | 0.00 | 0.00 | 37 | 1013.7 |
| 20260504232007 | 75 | 360 | 2.0 | 8.0 | 0.00 | 0.00 | 0.00 | 37 | 1013.7 |
| 20260504231528 | 75 | 344 | 2.0 | 12.0 | 0.00 | 0.00 | 0.00 | 36 | 1013.6 |
| 20260504231014 | 75 | 306 | 3.0 | 12.0 | 0.00 | 0.00 | 0.00 | 36 | 1013.6 |
| 20260504230506 | 75 | 302 | 4.0 | 10.0 | 0.00 | 0.00 | 0.00 | 35 | 1013.6 |
| 20260504230024 | 76 | 337 | 2.0 | 8.0 | 0.00 | 0.00 | 0.00 | 35 | 1013.6 |
| 20260504225508 | 76 | 360 | 3.0 | 11.0 | 0.00 | 0.00 | 0.00 | 35 | 1013.5 |
| 20260504225007 | 76 | 360 | 3.0 | 11.0 | 0.00 | 0.00 | 0.00 | 35 | 1013.5 |
| 20260504224535 | 76 | 360 | 6.0 | 11.0 | 0.00 | 0.00 | 0.00 | 34 | 1013.6 |
| 20260504224009 | 77 | 360 | 2.0 | 9.0 | 0.00 | 0.00 | 0.00 | 35 | 1013.5 |
| 20260504223504 | 77 | 360 | 2.0 | 9.0 | 0.00 | 0.00 | 0.00 | 34 | 1013.6 |
| 20260504223018 | 78 | 360 | 4.0 | 10.0 | 0.00 | 0.00 | 0.00 | 33 | 1013.5 |
| 20260504222508 | 78 | 360 | 4.0 | 10.0 | 0.00 | 0.00 | 0.00 | 34 | 1013.5 |
| 20260504222006 | 78 | 55 | 1.0 | 8.0 | 0.00 | 0.00 | 0.00 | 34 | 1013.5 |
| 20260504221523 | 79 | 360 | 3.0 | 8.0 | 0.00 | 0.00 | 0.00 | 33 | 1013.5 |
| 20260504221008 | 79 | 348 | 1.0 | 14.0 | 0.00 | 0.00 | 0.00 | 33 | 1013.5 |
| 20260504220508 | 79 | 58 | 7.0 | 14.0 | 0.00 | 0.00 | 0.00 | 31 | 1013.5 |
| 20260504220025 | 80 | 333 | 3.0 | 7.0 | 0.00 | 0.00 | 0.00 | 31 | 1013.5 |
| 20260504215509 | 81 | 315 | 2.0 | 11.0 | 0.00 | 0.00 | 0.00 | 30 | 1013.5 |
| 20260504215006 | 81 | 36 | 4.0 | 11.0 | 0.00 | 0.00 | 0.00 | 29 | 1013.4 |
| 20260504214526 | 81 | 332 | 6.0 | 11.0 | 0.00 | 0.00 | 0.00 | 29 | 1013.4 |
| 20260504214011 | 81 | 9 | 3.0 | 6.0 | 0.00 | 0.00 | 0.00 | 29 | 1013.4 |
| 20260504213028 | 81 | 34 | 0.0 | 6.0 | 0.00 | 0.00 | 0.00 | 30 | 1013.5 |
| 20260504212506 | 81 | 67 | 1.0 | 11.0 | 0.00 | 0.00 | 0.00 | 31 | 1013.5 |
| 20260504212006 | 81 | 207 | 1.0 | 11.0 | 0.00 | 0.00 | 0.00 | 28 | 1013.5 |
| 20260504210507 | 81 | 14 | 3.0 | 9.0 | 0.00 | 0.00 | 0.00 | 29 | 1013.5 |
| 20260504205507 | 82 | 323 | 6.0 | 10.0 | 0.00 | 0.00 | 0.00 | 27 | 1013.6 |
| 20260504205010 | 82 | 308 | 3.0 | 9.0 | 0.00 | 0.00 | 0.00 | 29 | 1013.6 |
| 20260504204525 | 82 | 94 | 2.0 | 9.0 | 0.00 | 0.00 | 0.00 | 26 | 1013.7 |
| 20260504204008 | 82 | 5 | 2.0 | 11.0 | 0.00 | 0.00 | 0.00 | 27 | 1013.8 |
| 20260504203509 | 82 | 350 | 6.0 | 11.0 | 0.00 | 0.00 | 0.00 | 26 | 1013.8 |
| 20260504203032 | 82 | 326 | 5.0 | 10.0 | 0.00 | 0.00 | 0.00 | 26 | 1013.9 |
| 20260504202513 | 82 | 143 | 2.0 | 4.0 | 0.00 | 0.00 | 0.00 | 26 | 1013.9 |
| 20260504202007 | 82 | 130 | 0.0 | 6.0 | 0.00 | 0.00 | 0.00 | 27 | 1013.9 |
| 20260504201519 | 82 | 233 | 1.0 | 6.0 | 0.00 | 0.00 | 0.00 | 25 | 1014.0 |
| 20260504201007 | 82 | 159 | 2.0 | 8.0 | 0.00 | 0.00 | 0.00 | 29 | 1014.0 |
| 20260504200509 | 82 | 172 | 2.0 | 8.0 | 0.00 | 0.00 | 0.00 | 24 | 1014.1 |
| 20260504195510 | 81 | 311 | 2.0 | 7.0 | 0.00 | 0.00 | 0.00 | 27 | 1014.1 |
| 20260504195005 | 81 | 120 | 2.0 | 8.0 | 0.00 | 0.00 | 0.00 | 27 | 1014.1 |
| 20260504194011 | 81 | 360 | 2.0 | 8.0 | 0.00 | 0.00 | 0.00 | 27 | 1014.0 |
| 20260504193510 | 82 | 13 | 3.0 | 12.0 | 0.00 | 0.00 | 0.00 | 27 | 1014.0 |
| 20260504193026 | 82 | 305 | 0.0 | 12.0 | 0.00 | 0.00 | 0.00 | 28 | 1014.0 |
| 20260504192507 | 81 | 315 | 3.0 | 8.0 | 0.00 | 0.00 | 0.00 | 29 | 1014.1 |
| 20260504192012 | 81 | 336 | 3.0 | 9.0 | 0.00 | 0.00 | 0.00 | 27 | 1014.2 |
| 20260504191529 | 80 | 9 | 2.0 | 11.0 | 0.00 | 0.00 | 0.00 | 29 | 1014.4 |
| 20260504191007 | 80 | 278 | 5.0 | 11.0 | 0.00 | 0.00 | 0.00 | 29 | 1014.5 |
| 20260504190507 | 80 | 151 | 2.0 | 9.0 | 0.00 | 0.00 | 0.00 | 28 | 1014.5 |
| 20260504185007 | 80 | 360 | 3.0 | 9.0 | 0.00 | 0.00 | 0.00 | 31 | 1014.8 |
| 20260504183509 | 79 | 360 | 3.0 | 11.0 | 0.00 | 0.00 | 0.00 | 32 | 1014.9 |
| 20260504182509 | 78 | 202 | 1.0 | 6.0 | 0.00 | 0.00 | 0.00 | 30 | 1014.9 |
| 20260504182011 | 78 | 81 | 2.0 | 13.0 | 0.00 | 0.00 | 0.00 | 33 | 1015.0 |
| 20260504181524 | 78 | 360 | 1.0 | 13.0 | 0.00 | 0.00 | 0.00 | 31 | 1015.0 |
| 20260504181015 | 77 | 292 | 3.0 | 11.0 | 0.00 | 0.00 | 0.00 | 34 | 1014.9 |
| 20260504180511 | 76 | 330 | 2.0 | 10.0 | 0.00 | 0.00 | 0.00 | 33 | 1015.0 |
| 20260504180032 | 77 | 208 | 2.0 | 10.0 | 0.00 | 0.00 | 0.00 | 31 | 1015.0 |
| 20260504175007 | 77 | 29 | 2.0 | 10.0 | 0.00 | 0.00 | 0.00 | 33 | 1015.1 |
| 20260504174008 | 76 | 298 | 3.0 | 8.0 | 0.00 | 0.00 | 0.00 | 37 | 1015.2 |
| 20260504173507 | 76 | 342 | 2.0 | 8.0 | 0.00 | 0.00 | 0.00 | 37 | 1015.3 |
| 20260504173018 | 76 | 105 | 1.0 | 8.0 | 0.00 | 0.00 | 0.00 | 38 | 1015.4 |
| 20260504172508 | 76 | 75 | 2.0 | 8.0 | 0.00 | 0.00 | 0.00 | 38 | 1015.5 |
| 20260504172006 | 75 | 116 | 1.0 | 5.0 | 0.00 | 0.00 | 0.00 | 37 | 1015.6 |
| 20260504171009 | 75 | 180 | 1.0 | 4.0 | 0.00 | 0.00 | 0.00 | 40 | 1015.8 |
| 20260504170505 | 74 | 46 | 1.0 | 7.0 | 0.00 | 0.00 | 0.00 | 39 | 1015.8 |
| 20260504151006 | 67 | 288 | 0.0 | 5.0 | 0.00 | 0.00 | 0.00 | 57 | 1017.1 |
| 20260504150507 | 66 | 173 | 1.0 | 5.0 | 0.00 | 0.00 | 0.00 | 58 | 1017.1 |
| 20260504141004 | 62 | 303 | 1.0 | 3.0 | 0.00 | 0.00 | 0.00 | 69 | 1017.1 |
| 20260504140505 | 62 | 191 | 1.0 | 5.0 | 0.00 | 0.00 | 0.00 | 68 | 1017.2 |
| 20260504130504 | 55 | 32 | 0.0 | 4.0 | 0.00 | 0.00 | 0.00 | 84 | 1017.3 |
| 20260504100506 | 43 | 360 | 0.0 | 0.0 | 0.00 | 0.00 | 0.00 | 91 | 1017.4 |
| 20260504082008 | 44 | 360 | 0.0 | 0.0 | 0.00 | 0.00 | 0.00 | 89 | 1017.4 |
| 20260504081510 | 44 | 360 | 0.0 | 0.0 | 0.00 | 0.00 | 0.00 | 89 | 1017.4 |
| 20260504081004 | 44 | 360 | 0.0 | 0.0 | 0.00 | 0.00 | 0.00 | 89 | 1017.4 |
| 20260504080504 | 44 | 360 | 0.0 | 0.0 | 0.00 | 0.00 | 0.00 | 88 | 1017.4 |
| 20260504050506 | 44 | 360 | 0.0 | 0.0 | 0.00 | 0.00 | 0.00 | 85 | 1017.6 |
| 20260504045507 | 45 | 360 | 0.0 | 0.0 | 0.00 | 0.00 | 0.00 | 85 | 1017.7 |
| 20260504045006 | 45 | 360 | 0.0 | 0.0 | 0.00 | 0.00 | 0.00 | 85 | 1017.8 |
| 20260504044531 | 45 | 360 | 0.0 | 0.0 | 0.00 | 0.00 | 0.00 | 85 | 1017.8 |
| 20260504044005 | 45 | 360 | 0.0 | 0.0 | 0.00 | 0.00 | 0.00 | 84 | 1017.7 |
| 20260504043508 | 45 | 360 | 0.0 | 0.0 | 0.00 | 0.00 | 0.00 | 84 | 1017.8 |
| 20260504043019 | 45 | 360 | 0.0 | 0.0 | 0.00 | 0.00 | 0.00 | 83 | 1017.7 |
| 20260504042508 | 45 | 360 | 0.0 | 0.0 | 0.00 | 0.00 | 0.00 | 82 | 1017.7 |
| 20260504042007 | 45 | 360 | 0.0 | 0.0 | 0.00 | 0.00 | 0.00 | 83 | 1017.7 |